Flag for Japan Weather past 2 weeks in Sapporo, Japan

Now
67 °F

Sunny.


Feels Like: 67 °F
Forecast: 41 / 70 °F
Wind: 2 mph from Northeast

Location: Sapporo


UV Index: 5 (Moderate)

Visibility: 13 mi


Pressure: 30.10 "Hg

Humidity: 29%

Dew point: 34 °F

Location of SapporoLocation

Historic Weather in Sapporo

°F

Sapporo temperature yesterday

Maximum temperature yesterday: 54 °F (at 12:00 PM)
Minimum temperature yesterday: 41 °F (at 5:00 AM)
Average temperature yesterday: 47 °F

Past Weeks' High & Low Weather Summary

 TemperatureHumidityPressure
High64 °F (Apr 24, 11:00 AM)91% (Apr 11, 5:00 AM)30.24 "Hg (Apr 11, 5:00 AM)
Low31 °F (Apr 14, 5:00 AM)15% (Apr 14, 2:00 PM)29.65 "Hg (Apr 15, 3:00 PM)
Average43 °F54%29.96 "Hg
* Reported Apr 9 11:00 AM — Apr 24 11:00 AM, Sapporo, Weather by CustomWeather, © 2014

Note: Actual official high and low records may vary slightly from our data, if they occured in-between our weather recording intervals... More about our weather records

Advertising

Historic Weather Conditions — Data for Previous 24 hours

 ConditionsComfort  
Time TempWeatherWind HumidityBarometerVisibility
11:00 AM
Apr 24
64 °FMild.5 mph35%30.12 "HgN/A
10:00 AM58 °FRefreshingly cool.3 mph44%30.14 "HgN/A
9:00 AM52 °FSunny.5 mph54%30.14 "Hg16 mi
8:00 AM48 °FCool.3 mph67%30.14 "HgN/A
7:00 AM44 °FQuite cool.3 mph78%30.14 "HgN/A
6:00 AM39 °FSunny.3 mph85%30.14 "Hg12 mi
5:00 AM39 °FChilly.7 mph90%30.13 "HgN/A
4:00 AM40 °FQuite cool.5 mph90%30.11 "HgN/A
3:00 AM41 °FOvercast.6 mph86%30.11 "Hg9 mi
2:00 AM43 °FQuite cool.1 mph86%30.11 "HgN/A
1:00 AM43 °FQuite cool.3 mph86%30.11 "HgN/A
12:00 AM44 °FQuite cool.5 mph84%30.10 "HgN/A
11:00 PM
Apr 23
44 °FQuite cool.6 mph86%30.09 "HgN/A
10:00 PM44 °FQuite cool.3 mph87%30.06 "HgN/A
9:00 PM44 °FOvercast.7 mph86%30.06 "Hg9 mi
8:00 PM44 °FQuite cool.5 mph86%30.05 "HgN/A
7:00 PM45 °FCool.7 mph86%30.02 "HgN/A
6:00 PM45 °FOvercast.9 mph83%30.01 "Hg9 mi
5:00 PM46 °FCool.13 mph82%30.01 "HgN/A
4:00 PM47 °FCool.14 mph76%29.99 "HgN/A
3:00 PM49 °FPassing clouds.15 mph70%29.98 "Hg12 mi
2:00 PM53 °FCool.12 mph58%29.97 "HgN/A
1:00 PM54 °FCool.15 mph45%29.97 "HgN/A
Weather by CustomWeather, © 2014

See weather overview